Regional Weather Roundup
Issued by NWS

Home | Current Version | Previous Version | Graphics & Text | Print | Product List | Glossary On
Versions: 1 2 3 4 5 6 7 8 9 10 11 12 13 14 15 16 17 18 19 20 21 22 23 24 25 26 27 28 29 30 31 32 33 34 35 36 37 38 39 40 41 42 43 44 45 46 47 48 49 50
000
ASUS43 KBIS 181110
RWRND

NORTH DAKOTA REGIONAL WEATHER ROUNDUP
NATIONAL WEATHER SERVICE BISMARCK ND
600 AM CDT WED OCT 18 2017

NOTE: "FAIR" INDICATES FEW OR NO CLOUDS BELOW 12,000 FEET WITH NO
SIGNIFICANT WEATHER AND/OR OBSTRUCTIONS TO VISIBILITY.


NDZ001>003-009>011-017-181200-
NORTHWEST NORTH DAKOTA

CITY           SKY/WX    TMP DP  RH WIND       PRES   REMARKS
WILLISTON      CLOUDY    46  30  53 W13       29.84R
MINOT          CLOUDY    52  33  48 W25G33    29.72R
MINOT AFB      CLOUDY    50  33  52 NW25G36   29.69R
$$

NDZ018>021-031>035-040>046-181200-
SOUTHWEST NORTH DAKOTA

CITY           SKY/WX    TMP DP  RH WIND       PRES   REMARKS
BISMARCK       CLOUDY    59  31  34 NW16G24   29.76R
DICKINSON      CLOUDY    50  28  42 NW22G30   29.83R
GARRISON         N/A     51  33  50 NW16G35   29.74R
HETTINGER ARPT CLOUDY    52  25  35 NW25G35   29.87R
$$

NDZ004>008-012>016-024-026-027-054-181200-
NORTHEAST NORTH DAKOTA

CITY           SKY/WX    TMP DP  RH WIND       PRES   REMARKS
GRAND FORKS    CLOUDY    60  36  40 SW10      29.56R
GRND FRKS AFB  CLOUDY    62  32  33 W14       29.57R
DEVILS LAKE    CLOUDY    58  32  37 W17       29.62R
$$

NDZ022-023-025-028>030-036>039-047>053-181200-
SOUTHEAST NORTH DAKOTA

CITY           SKY/WX    TMP DP  RH WIND       PRES   REMARKS
FARGO          CLEAR     50  41  71 S10       29.60R
JAMESTOWN      CLOUDY    58  32  37 W16       29.66R
$$





USA.gov is the U.S. government's official web portal to all federal, state and local government web resources and services.